Gunnison, CO

2:18 PM MDT on March 23, 2017 (GMT -0600)
Gunnison County

Weather History for KGUC - January, 2014

Change the Weather History Date:

Thursday, January 2, 2014

  Actual Average Record
Temperature  
Mean Temperature 8 °F -  
Max Temperature 23 °F 24 °F 44 °F (1998)
Min Temperature -7 °F 0 °F -32 °F (2016)
Degree Days  
Heating Degree Days 57    
Moisture  
Dew Point -4 °F    
Average Humidity 63    
Maximum Humidity 100    
Minimum Humidity 32    
Precipitation  
Precipitation 0.00 in - - ()
Sea Level Pressure  
Sea Level Pressure 30.39 in    
Wind  
Wind Speed 1 mph (East)    
Max Wind Speed 6 mph    
Max Gust Speed -    
Visibility 10 miles    
Events      
Averages and records for this station are not official NWS values.
T = Trace of Precipitation, MM = Missing Value Source: NWS Daily Summary

Daily Weather History Graph

Daily Weather History Graph

Search for Another Location

Airport or City:

Trip Planner

Search our weather history database for the weather conditions in past years. The results will help you decide how hot, cold, wet, or windy it might be!

Date:

Astronomy

Jan. 02, 2014 Rise Set
Actual Time 7:25 AM MST 4:58 PM MST
Civil Twilight 6:55 AM MST 5:28 PM MST
Nautical Twilight 6:22 AM MST 6:01 PM MST
Astronomical Twilight 5:50 AM MST 6:33 PM MST
Moon 8:10 AM MST (1/2) 6:57 PM MST (1/2)
Length of Visible Light 10h 32m
Length of Day
9h 33m
Waxing Crescent, 3% of the Moon is Illuminated
Jan 2
Waxing Crescent
Jan 7
First Quarter
Jan 15
Full
Jan 23
Last Quarter
Jan 30
New

Hourly Weather History & Observations

Time (MST) Temp. Windchill Dew Point Humidity Pressure Visibility Wind Dir Wind Speed Gust Speed Precip Events Conditions
12:15 AM 3.2 °F - -0.4 °F 85% 30.39 in 10.0 mi Calm Calm - N/A   Clear
12:35 AM 3.2 °F -4.2 °F -9.4 °F 56% 30.40 in 10.0 mi SSE 3.5 mph - N/A   Clear
12:55 AM 6.8 °F -2.0 °F 6.8 °F 100% 30.40 in 8.0 mi SSW 4.6 mph - N/A   Clear
1:15 AM 3.2 °F - -11.2 °F 51% 30.40 in 8.0 mi Calm Calm - N/A   Clear
1:35 AM 1.4 °F -8.3 °F -2.2 °F 85% 30.40 in 10.0 mi ENE 4.6 mph - N/A   Clear
1:55 AM 3.2 °F - 3.2 °F 100% 30.41 in 10.0 mi Calm Calm - N/A   Clear
2:15 AM 1.4 °F - -14.8 °F 47% 30.42 in 10.0 mi Calm Calm - N/A   Clear
2:35 AM -2.2 °F - -2.2 °F 100% 30.42 in 10.0 mi Calm Calm - N/A   Clear
2:55 AM -0.4 °F -12.0 °F -9.4 °F 66% 30.42 in 10.0 mi ENE 5.8 mph - N/A   Clear
3:15 AM 1.4 °F - 1.4 °F 100% 30.42 in 10.0 mi Calm Calm - N/A   Clear
3:35 AM -0.4 °F - -14.8 °F 51% 30.42 in 10.0 mi Calm Calm - N/A   Clear
3:55 AM -2.2 °F - -2.2 °F 100% 30.42 in 10.0 mi Calm Calm - N/A   Clear
4:15 AM -2.2 °F - -14.8 °F 55% 30.42 in 10.0 mi Calm Calm - N/A   Clear
4:35 AM -2.2 °F - -4.0 °F 92% 30.43 in 10.0 mi Calm Calm - N/A   Clear
4:55 AM -2.2 °F -12.5 °F -9.4 °F 71% 30.43 in 10.0 mi ENE 4.6 mph - N/A   Clear
5:15 AM -2.2 °F -12.5 °F -16.6 °F 50% 30.43 in 10.0 mi NE 4.6 mph - N/A   Clear
5:35 AM -0.4 °F - -16.6 °F 46% 30.43 in 10.0 mi Calm Calm - N/A   Clear
5:55 AM -4.0 °F -12.4 °F -23.8 °F 38% 30.44 in 10.0 mi ENE 3.5 mph - N/A   Clear
6:15 AM -4.0 °F -14.6 °F -27.4 °F 32% 30.43 in 10.0 mi NE 4.6 mph - N/A   Clear
6:35 AM -4.0 °F -14.6 °F -27.4 °F 32% 30.44 in 10.0 mi ENE 4.6 mph - N/A   Clear
6:55 AM -5.8 °F - -14.8 °F 65% 30.44 in 10.0 mi Calm Calm - N/A   Clear
7:15 AM -5.8 °F -14.5 °F -29.2 °F 32% 30.44 in 10.0 mi ENE 3.5 mph - N/A   Clear
7:35 AM -5.8 °F -16.7 °F - N/A% 30.44 in 10.0 mi ENE 4.6 mph - N/A   Clear
7:55 AM -7.6 °F - - N/A% 30.44 in 10.0 mi Calm Calm - N/A   Clear
8:15 AM -7.6 °F - - N/A% 30.45 in 10.0 mi Calm Calm - N/A   Clear
8:35 AM -4.0 °F - -25.6 °F 35% 30.46 in 10.0 mi Calm Calm - N/A   Clear
8:55 AM -2.2 °F -10.4 °F -20.2 °F 42% 30.47 in 10.0 mi SE 3.5 mph - N/A   Clear
9:15 AM -2.2 °F -10.4 °F -20.2 °F 42% 30.47 in 10.0 mi SE 3.5 mph - N/A   Clear
9:35 AM 1.4 °F - -14.8 °F 47% 30.48 in 10.0 mi Calm Calm - N/A   Clear
9:55 AM 1.4 °F - -18.4 °F 39% 30.48 in 10.0 mi Calm Calm - N/A   Clear
10:15 AM 3.2 °F -4.2 °F -0.4 °F 85% 30.48 in 10.0 mi SE 3.5 mph - N/A   Clear
10:35 AM 5.0 °F - -5.8 °F 61% 30.47 in 10.0 mi Calm Calm - N/A   Clear
10:55 AM 6.8 °F - -9.4 °F 48% 30.47 in 10.0 mi Calm Calm - N/A   Clear
11:15 AM 8.6 °F 2.0 °F -7.6 °F 48% 30.46 in 10.0 mi SE 3.5 mph - N/A   Clear
11:35 AM 10.4 °F - -2.2 °F 57% 30.44 in 10.0 mi Calm Calm - N/A   Clear
11:55 AM 12.2 °F - -2.2 °F 53% 30.43 in 10.0 mi Calm Calm - N/A   Clear
12:15 PM 12.2 °F - -0.4 °F 57% 30.42 in 10.0 mi Calm Calm - N/A   Clear
12:35 PM 15.8 °F - 3.2 °F 58% 30.40 in 10.0 mi Calm Calm - N/A   Clear
12:55 PM 15.8 °F - 3.2 °F 58% 30.38 in 10.0 mi Calm Calm - N/A   Clear
1:15 PM 17.6 °F - 3.2 °F 53% 30.38 in 10.0 mi Calm Calm - N/A   Clear
1:35 PM 17.6 °F - 6.8 °F 63% 30.37 in 10.0 mi Calm Calm - N/A   Clear
1:55 PM 19.4 °F - 6.8 °F 58% 30.36 in 10.0 mi Calm Calm - N/A   Clear
2:15 PM 19.4 °F 14.3 °F 6.8 °F 58% 30.36 in 10.0 mi SE 3.5 mph - N/A   Clear
2:35 PM 19.4 °F - 8.6 °F 63% 30.35 in 10.0 mi Calm Calm - N/A   Clear
2:55 PM 21.2 °F - 6.8 °F 54% 30.35 in 10.0 mi Calm Calm - N/A   Clear
3:15 PM 21.2 °F - 6.8 °F 54% 30.35 in 10.0 mi Calm Calm - N/A   Clear
3:35 PM 21.2 °F - 8.6 °F 58% 30.35 in 10.0 mi Calm Calm - N/A   Clear
3:55 PM 23.0 °F 17.0 °F 10.4 °F 59% 30.34 in 10.0 mi NNE 4.6 mph - N/A   Clear
4:15 PM 23.0 °F 18.4 °F 8.6 °F 54% 30.34 in 10.0 mi North 3.5 mph - N/A   Clear
4:35 PM 21.2 °F - 6.8 °F 54% 30.34 in 10.0 mi Calm Calm - N/A   Clear
4:55 PM 19.4 °F - 6.8 °F 58% 30.34 in 10.0 mi Calm Calm - N/A   Clear
5:15 PM 17.6 °F 12.3 °F 3.2 °F 53% 30.34 in 10.0 mi SSE 3.5 mph - N/A   Clear
5:35 PM 15.8 °F - 3.2 °F 58% 30.34 in 10.0 mi Calm Calm - N/A   Clear
6:15 PM 14.0 °F - 3.2 °F 62% 30.33 in 10.0 mi Calm Calm - N/A   Clear
6:35 PM 12.2 °F - 1.4 °F 62% 30.34 in 10.0 mi Calm Calm - N/A   Clear
6:55 PM 8.6 °F - -0.4 °F 67% 30.33 in 10.0 mi Calm Calm - N/A   Clear
7:15 PM 10.4 °F - 1.4 °F 67% 30.33 in 10.0 mi Calm Calm - N/A   Clear
7:35 PM 10.4 °F 2.2 °F 1.4 °F 67% 30.33 in 10.0 mi North 4.6 mph - N/A   Clear
7:55 PM 8.6 °F - 1.4 °F 73% 30.33 in 10.0 mi Calm Calm - N/A   Clear
8:15 PM 6.8 °F - -5.8 °F 56% 30.32 in 10.0 mi Calm Calm - N/A   Clear
8:35 PM 6.8 °F - 5.0 °F 92% 30.32 in 10.0 mi Calm Calm - N/A   Clear
9:15 PM 6.8 °F - -0.4 °F 72% 30.32 in 10.0 mi Calm Calm - N/A   Clear
9:35 PM 6.8 °F - 1.4 °F 79% 30.32 in 10.0 mi Calm Calm - N/A   Clear
10:15 PM 3.2 °F - 1.4 °F 92% 30.32 in 7.0 mi North - - N/A   Clear
10:55 PM 3.2 °F - -2.2 °F 78% 30.32 in 10.0 mi Calm Calm - N/A   Clear
11:15 PM 1.4 °F - -5.8 °F 72% 30.31 in 9.0 mi Calm Calm - N/A   Clear
11:35 PM 1.4 °F -8.3 °F -2.2 °F 85% 30.31 in 10.0 mi ENE 4.6 mph - N/A   Clear
11:55 PM -0.4 °F - -7.6 °F 72% 30.31 in 10.0 mi Calm Calm - N/A   Clear